This is the latest recevied weather packets stored in our database for station/object SR4DIG-13. If no packets are shown the sender has not sent any weather packets the latest 10 day(s).
| Time | Temp. | Humidity | Pressure | Rain* | Wind** | Luminosity | Snow |
|---|---|---|---|---|---|---|---|
| 1777447080 | 8.33° C | 49% | 1024.8 hPa | 0 mm | - | - | - |
| 1777446779 | 7.78° C | 50% | 1024.8 hPa | 0 mm | - | - | - |
| 1777446160 | 7.78° C | 52% | 1024.9 hPa | 0 mm | - | - | - |
| 1777445859 | 7.22° C | 54% | 1024.6 hPa | 0 mm | - | - | - |
| 1777445558 | 7.22° C | 55% | 1024.7 hPa | 0 mm | - | - | - |
| 1777445257 | 6.11° C | 56% | 1024.8 hPa | 0 mm | - | - | - |
| 1777444656 | 6.11° C | 57% | 1024.5 hPa | 0 mm | - | - | - |
| 1777444355 | 5.56° C | 57% | 1024.6 hPa | 0 mm | - | - | - |
| 1777444053 | 5.56° C | 58% | 1024.5 hPa | 0 mm | - | - | - |
| 1777443452 | 5.56° C | 58% | 1024.5 hPa | 0 mm | - | - | - |
| 1777443151 | 5° C | 60% | 1024.4 hPa | 0 mm | - | - | - |
| 1777442568 | 5° C | 60% | 1024.3 hPa | 0 mm | - | - | - |
| 1777442267 | 5° C | 61% | 1024.3 hPa | 0 mm | - | - | - |
| 1777441966 | 4.44° C | 61% | 1024.2 hPa | 0 mm | - | - | - |
| 1777441666 | 4.44° C | 62% | 1024.1 hPa | 0 mm | - | - | - |
| 1777441365 | 4.44° C | 63% | 1024.1 hPa | 0 mm | - | - | - |
| 1777441064 | 3.89° C | 63% | 1024.2 hPa | 0 mm | - | - | - |
| 1777440763 | 3.33° C | 65% | 1024.1 hPa | 0 mm | - | - | - |
| 1777440200 | 3.33° C | 66% | 1024.2 hPa | 0 mm | - | - | - |
| 1777439899 | 2.78° C | 66% | 1024.1 hPa | 0 mm | - | - | - |
| 1777439598 | 2.78° C | 67% | 1024 hPa | 0 mm | - | - | - |
| 1777439297 | 2.22° C | 68% | 1024.1 hPa | 0 mm | - | - | - |
| 1777438954 | 2.22° C | 68% | 1024 hPa | 0 mm | - | - | - |
| 1777438654 | 2.22° C | 70% | 1024 hPa | 0 mm | - | - | - |
| 1777438353 | 1.67° C | 71% | 1024 hPa | 0 mm | - | - | - |
* Rain since midnight (hover to see other rain measurements)
** Current wind speed in m/s (hover to see current wind gust speed)